STARLINK-2031, 47648

Orbit data source: Space-Track

STARLINK-2031, 47648 is a payload satellite owned by SpaceX/Seattle (US) in LEO that was launched on Tue, 16 Feb 2021 UTC via an FALCON 9 launch vehicle from the Air Force Eastern Test Range (AFETR). Payload-class satellites include a variety of spacecraft equipped with specific instruments for various scientific and technological missions. These include communications satellites like Starlink; space stations such as the ISS; scientific satellites like the Hubble; Earth observation satellites from companies like Planet Labs, Umbra, and HawkEye 360; GPS; miniature CubeSats for education and research; and military/defense satellites.

Loading next visibility...
Identifier
47648, 2021-012AE
Orbit
LEO
Country
Flag of USUS
Related business
Manufacturer
SpaceX/Seattle
Mission
Operational Commercial Communications
Bus & Motor
STARLINK, Unknown motor
Mass
260 kg wet, ~248 kg dry
Launch date (UTC)
2021-02-16 (5 years ago)
Launch vehicle
FALCON 9
Launch site
Air Force Eastern Test Range (AFETR)
Object type
Payload
Rocket body
Debris
Shape & HBR
Box + 1 Pan, 4.4 m
Radar Cross Section
13.562 m², Large (>1 m²)

Expand to show TLE details & history
Last TLE update: 23 hours ago

TLE from 23 hours ago
0 STARLINK-2031
1 47648U 21012AE  25241.16206025  .00000618  00000-0  60393-4 0  9991
2 47648  53.0539 195.9081 0001533  91.5794 268.5371 15.06411775251250
Epoch: 2025-08-29T03:53Z
TLE epoch observation values (Epoch: 2025-08-29T03:53:22.005Z)
Latitude
0.00001°
Longitude
159.95175°
Altitude
548.082 km
Speed
7.589 km/s
True Right ascension
13h 03m 37s
True Declination
0° 00' 00"
Sunlit
Object was in daylight at epoch
Visualization orbit readout
Latitude
Unknown
Longitude
Unknown
Altitude
Unknown
Speed
Unknown
Apparent Right ascension
Unknown
Apparent Declination
Unknown
Sunlit
N/A
Visualization observer readout
Local Sidereal Time
18:01:15
Azimuth
Unknown
Elevation
Unknown
Doppler factor
Unknown
Orbital elements
Apogee altitude
548.508 km
Perigee altitude
546.385 km
Semi-major axis
6,925.583 km
Eccentricity
0.00015
Inclination
53.0539°
RAAN
195.9081°
Arg. of periapsis
91.5794°
True anomaly
268.51954°
Mean anomaly
268.5371°
Eccentric anomaly
268.52832°
Mean motion
3.76581 °/min
Orbital period
95.6 mins
BSTAR
0.000060393
Loading maneuver chart data...
Computing Atmospheric mass density...

Documentation

Showing up to 5 results
|